GW1765 Weather Reports


time (UTC)temp
C
wind
direction
speed
KPH
gust
KPH
rain 1hr
cm
rain 24hr
cm
rain mn
cm
humidity
%
barometer
mb
20260903090105 13 313 17.7 25.7 0.03 0.03 0.03 99 1016.0
20260903085021 13 310 19.3 27.4 0.03 0.03 0.03 99 1016.0
20260903084017 13 303 17.7 27.4 0.03 0.03 0.03 99 1016.0
20260903083114 13 307 14.5 17.7 0.03 0.03 0.03 99 1016.0
20260903082110 13 306 14.5 20.9 0.00 0.00 0.00 99 1015.9
20260903081107 13 313 12.9 19.3 0.00 0.00 0.00 99 1016.0
20260903080105 13 313 14.5 24.1 0.00 0.00 0.00 99 1016.1
20260903075100 13 308 14.5 22.5 0.00 0.00 0.00 99 1016.0
20260903074057 13 315 16.1 24.1 0.00 0.00 0.00 99 1016.0
20260903073053 13 315 14.5 17.7 0.00 0.00 0.00 99 1016.0
20260903072111 13 307 14.5 24.1 0.00 0.00 0.00 99 1015.9
20260903071046 13 313 12.9 17.7 0.00 0.00 0.00 99 1015.9
20260903070045 13 312 14.5 27.4 0.00 0.00 0.00 99 1015.8
20260903065039 13 295 16.1 24.1 0.00 0.00 0.00 99 1015.8
20260903064035 13 315 14.5 24.1 0.00 0.00 0.00 99 1015.8
20260903063032 13 309 14.5 20.9 0.00 0.00 0.00 98 1015.7
20260903062029 13 319 16.1 20.9 0.00 0.00 0.00 98 1015.5
20260903061025 13 315 16.1 20.9 0.00 0.00 0.00 97 1015.5
20260903060023 13 312 17.7 24.1 0.00 0.00 0.00 96 1015.5
20260903055018 13 319 17.7 25.7 0.00 0.00 0.00 96 1015.6
20260903054115 13 315 17.7 25.7 0.00 0.00 0.00 95 1015.6
20260903053111 13 315 9.7 24.1 0.00 0.00 0.00 95 1015.5
20260903052110 13 315 16.1 20.9 0.00 0.00 0.00 94 1015.6
20260903051106 13 315 14.5 22.5 0.00 0.00 0.00 93 1015.6
20260903050100 13 315 14.5 22.5 0.00 0.00 0.00 93 1015.5
20260903045057 13 323 12.9 19.3 0.00 0.00 0.00 92 1015.6
20260903044053 13 324 14.5 17.7 0.00 0.00 0.00 92 1015.6
20260903043050 12 0 6.4 9.7 0.00 0.00 0.00 91 1015.7
20260903042046 12 357 11.3 17.7 0.00 0.00 0.00 91 1015.6
20260903041044 13 0 12.9 20.9 0.00 0.00 0.00 91 1015.8
20260903040040 13 349 12.9 20.9 0.00 0.00 0.00 92 1015.9
20260903035035 13 353 12.9 20.9 0.00 0.00 0.00 92 1016.1
20260903034033 12 0 11.3 16.1 0.00 0.00 0.00 92 1016.0
20260903033030 12 349 14.5 20.9 0.00 0.00 0.00 92 1016.1
20260903032046 12 0 14.5 17.7 0.00 0.00 0.00 91 1016.2
20260903031022 12 180 14.5 17.7 0.00 0.00 0.00 91 1016.3
20260903030020 -17 0.0 0.0 0.00 0.00 0.00 1016.4
20260903025115 -17 0.0 0.0 0.00 0.00 0.00 1016.4
20260903024111 13 315 22.5 24.1 0.00 0.00 0.00 90 1016.5
20260903023108 13 315 22.5 25.7 0.00 0.00 0.00 90 1016.5
20260903022105 13 356 22.5 32.2 0.00 0.00 0.00 90 1016.6
20260903021101 13 350 22.5 30.6 0.00 0.00 0.00 89 1016.6
20260903020057 13 340 22.5 35.4 0.00 0.00 0.00 88 1016.6
20260903015053 13 350 19.3 29.0 0.00 0.00 0.00 88 1016.8
20260903014051 13 339 20.9 30.6 0.00 0.00 0.00 87 1017.0
20260903013047 13 332 22.5 30.6 0.00 0.00 0.00 85 1017.3
20260903012043 13 330 20.9 33.8 0.00 0.00 0.00 83 1017.5
20260903011041 13 350 20.9 32.2 0.00 0.00 0.00 80 1017.6
20260903010059 14 343 19.3 27.4 0.00 0.00 0.00 80 1017.8
20260903005033 14 356 17.7 25.7 0.00 0.00 0.00 80 1018.1
20260903004029 14 337 19.3 29.0 0.00 0.03 0.00 80 1018.2
20260903003026 14 340 19.3 27.4 0.00 0.03 0.00 80 1018.5
20260903002025 14 333 17.7 27.4 0.00 0.05 0.00 80 1018.7
20260903001039 14 326 22.5 29.0 0.00 0.05 0.00 80 1018.7
20260903000016 14 331 20.9 29.0 0.00 0.05 0.00 81 1018.5
20260902235113 14 337 14.5 20.9 0.00 0.05 0.00 81 1018.7
20260902234109 13 326 19.3 27.4 0.00 0.05 0.00 80 1018.9
20260902233127 13 348 17.7 27.4 0.00 0.05 0.00 80 1018.9
20260902232102 13 340 19.3 33.8 0.00 0.05 0.00 78 1019.1
20260902231059 14 321 20.9 27.4 0.00 0.10 0.00 78 1019.2
20260902230055 13 320 16.1 24.1 0.00 0.10 0.00 79 1019.2
20260902225054 13 343 17.7 27.4 0.00 0.10 0.00 79 1019.2
20260902224048 13 332 19.3 29.0 0.00 0.10 0.00 80 1019.3
20260902223105 13 318 20.9 27.4 0.00 0.10 0.00 81 1019.4
20260902222042 13 332 19.3 25.7 0.00 0.10 0.00 81 1019.4
20260902221038 13 331 16.1 25.7 0.00 0.10 0.00 80 1019.5
20260902220035 13 324 14.5 20.9 0.00 0.10 0.00 79 1019.8
20260902215032 13 336 16.1 24.1 0.00 0.10 0.00 79 1019.8
20260902214028 13 337 12.9 17.7 0.00 0.10 0.00 82 1019.8
20260902213024 13 336 17.7 25.7 0.00 0.10 0.00 82 1019.9
20260902212021 13 342 11.3 17.7 0.00 0.10 0.00 85 1019.9
20260902211017 13 342 9.7 17.7 0.00 0.10 0.00 88 1020.0
20260902210114 13 348 6.4 12.9 0.00 0.10 0.00 91 1020.0
20260902205133 12 334 8.0 12.9 0.00 0.10 0.00 91 1020.1
20260902204129 12 4 9.7 17.7 0.00 0.10 0.00 93 1020.0
20260902203103 12 353 9.7 16.1 0.00 0.10 0.00 95 1019.9
20260902202100 12 346 8.0 14.5 0.00 0.10 0.00 96 1019.9
20260902201059 12 356 8.0 9.7 0.00 0.10 0.00 96 1019.9
20260902200053 12 351 8.0 12.9 0.00 0.10 0.00 96 1019.6
20260902195050 11 352 6.4 9.7 0.00 0.10 0.00 97 1019.5
20260902194046 11 349 9.7 16.1 0.00 0.10 0.00 97 1019.3
20260902193042 11 357 11.3 16.1 0.00 0.10 0.00 97 1019.3
20260902192039 11 355 8.0 14.5 0.00 0.10 0.00 97 1019.3
20260902191035 11 341 8.0 17.7 0.00 0.10 0.00 97 1019.3
20260902190032 11 352 8.0 12.9 0.00 0.10 0.00 97 1019.2
20260902185028 11 10 6.4 9.7 0.00 0.10 0.00 96 1019.2
20260902184025 11 0 4.8 9.7 0.00 0.10 0.00 96 1019.3
20260902183037 11 3 6.4 8.0 0.00 0.10 0.00 96 1019.2
20260902182018 11 0 6.4 9.7 0.00 0.13 0.00 96 1019.3
20260902181137 11 15 8.0 12.9 0.00 0.13 0.00 96 1019.3
20260902180112 11 13 8.0 12.9 0.00 0.13 0.00 96 1019.2
20260902175109 11 9 6.4 8.0 0.00 0.13 0.00 95 1019.2
20260902174104 11 352 6.4 12.9 0.00 0.15 0.00 95 1019.2
20260902173102 11 15 6.4 9.7 0.00 0.18 0.00 95 1019.2
20260902172058 11 15 4.8 8.0 0.00 0.18 0.00 95 1019.3
20260902171053 11 21 3.2 4.8 0.00 0.18 0.00 95 1019.3
20260902170111 11 0 4.8 8.0 0.00 0.18 0.00 95 1019.2
20260902165049 11 45 4.8 6.4 0.00 0.18 0.00 94 1019.1
20260902164044 11 335 4.8 6.4 0.00 0.18 0.00 94 1019.2
20260902163039 11 318 4.8 8.0 0.00 0.18 0.00 94 1019.1
20260902162117 11 315 6.4 9.7 0.00 0.18 0.00 94 1019.1
20260902161055 11 315 6.4 12.9 0.00 0.18 0.00 94 1019.1
20260902160029 11 321 6.4 12.9 0.00 0.18 0.00 94 1019.0
20260902155025 11 326 4.8 8.0 0.00 0.18 0.00 94 1019.0
20260902153020 11 338 4.8 6.4 0.00 0.18 0.00 94 1019.2
20260902152116 11 0 3.2 6.4 0.00 0.18 0.00 94 1019.3
20260902150108 11 341 8.0 11.3 0.00 0.18 0.00 94 1019.3
20260902145146 11 344 6.4 11.3 0.00 0.18 0.00 94 1019.4
20260902144100 11 336 8.0 11.3 0.00 0.18 0.00 94 1019.5
20260902143115 11 345 8.0 12.9 0.00 0.18 0.00 93 1019.6
20260902142056 11 339 9.7 16.1 0.00 0.18 0.00 93 1019.7
20260902113056 10 70 3.2 4.8 0.00 0.28 0.28 91 1019.6
20260902112051 10 38 1.6 3.2 0.00 0.28 0.28 91 1019.5
20260902111048 10 37 3.2 4.8 0.00 0.28 0.28 91 1019.5
20260902110045 10 30 1.6 3.2 0.00 0.28 0.28 91 1019.5
20260902105041 10 15 1.6 3.2 0.00 0.28 0.28 91 1019.3
20260902104040 11 0 0.0 3.2 0.00 0.28 0.28 91 1019.4
20260902103055 11 0 0.0 3.2 0.00 0.28 0.28 90 1019.4
20260902102031 11 338 0.0 3.2 0.00 0.28 0.28 90 1019.3
20260902101027 10 0 0.0 3.2 0.00 0.28 0.28 90 1019.3
20260902100023 10 324 0.0 3.2 0.00 0.28 0.28 90 1019.3
20260902095020 11 318 3.2 4.8 0.00 0.28 0.28 90 1019.2
20260902094017 11 353 3.2 4.8 0.00 0.28 0.28 90 1019.1
20260902093114 11 333 4.8 6.4 0.00 0.28 0.28 90 1019.2
20260902092110 11 315 4.8 8.0 0.00 0.28 0.28 90 1019.2
20260902091106 11 305 6.4 8.0 0.00 0.28 0.28 90 1019.1